Location: Carella
(45.8167°N, 9.2667°E)
Time: 17:20:28
(UTC+00:00)

SPOT 1/Viking Rocket - Pass Details

Date: 30 March 2020
Orbit: 776 x 795 km, 98.5° (Epoch: 28 May)

Event Time Altitude Azimuth Distance (km) Brightness Sun altitude
Exits shadow 20:00:55 39° 73° (ENE) 1,185 4.1 -22.3°
Maximum altitude 20:01:07 39° 67° (ENE) 1,182 4.2 -22.3°
Drops below altitude 10° 20:05:56 10° 0° (N) 2,372 6.4 -23.0°
Sets 20:08:24 0° 353° (N) 3,307 7.4 -23.4°
